Woodham Mortimer, United Kingdom

3:39 PM GMT on February 20, 2017 (GMT +0000)
Southend

Weather History for EGMC - October, 2011

Change the Weather History Date:

Sunday, October 16, 2011

  Actual Average Record
Temperature  
Mean Temperature 48 °F -  
Max Temperature 62 °F 53 °F 64 °F (2014)
Min Temperature 33 °F 43 °F 33 °F (2011)
Degree Days  
Heating Degree Days 18    
Moisture  
Dew Point 45 °F    
Average Humidity 74    
Maximum Humidity 93    
Minimum Humidity 55    
Precipitation  
Precipitation 0.00 in - - ()
Sea Level Pressure  
Sea Level Pressure 30.17 in    
Wind  
Wind Speed 2 mph ()    
Max Wind Speed 8 mph    
Max Gust Speed -    
Visibility 5.9 miles    
Events Fog    
Averages and records for this station are not official NWS values.
T = Trace of Precipitation, MM = Missing Value Source: Averaged Metar Reports

Daily Weather History Graph

Daily Weather History Graph

Search for Another Location

Airport or City:

Trip Planner

Search our weather history database for the weather conditions in past years. The results will help you decide how hot, cold, wet, or windy it might be!

Date:

Astronomy

Oct. 16, 2011 Rise Set
Actual Time 7:22 AM BST 6:02 PM BST
Civil Twilight 6:48 AM BST 6:36 PM BST
Nautical Twilight 6:09 AM BST 7:14 PM BST
Astronomical Twilight 5:30 AM BST 7:53 PM BST
Moon 8:03 PM BST (10/16) 11:57 AM BST (10/16)
Length of Visible Light 11h 47m
Length of Day
10h 40m
Waning Gibbous, 84% of the Moon is Illuminated
Oct 16
Waning Gibbous
Oct 20
Last Quarter
Oct 26
New
Nov 2
First Quarter
Nov 10
Full

Hourly Weather History & Observations

Time (BST) Temp. Dew Point Humidity Pressure Visibility Wind Dir Wind Speed Gust Speed Precip Events Conditions
7:20 AM 33.8 °F 32.0 °F 93% 30.18 in 4.3 mi Calm Calm - N/A Fog Fog
7:50 AM 33.8 °F 32.0 °F 93% 30.18 in 5.6 mi Calm Calm - N/A Fog Fog
8:20 AM 37.4 °F 35.6 °F 93% 30.18 in - Calm Calm - N/A   Clear
8:50 AM 41.0 °F 37.4 °F 87% 30.18 in - Calm Calm - N/A   Clear
9:20 AM 46.4 °F 44.6 °F 93% 30.18 in - Calm Calm - N/A   Clear
9:50 AM 51.8 °F 44.6 °F 76% 30.18 in - WSW 2.3 mph - N/A   Clear
10:20 AM 55.4 °F 46.4 °F 72% 30.18 in - Calm Calm - N/A   Clear
10:50 AM 55.4 °F 46.4 °F 72% 30.18 in - SSW 2.3 mph - N/A   Clear
11:20 AM 57.2 °F 46.4 °F 67% 30.18 in - SSW 4.6 mph - N/A   Clear
11:50 AM 59.0 °F 46.4 °F 63% 30.18 in - SW 4.6 mph - N/A   Clear
12:20 PM 59.0 °F 44.6 °F 59% 30.18 in - West 5.8 mph - N/A   Clear
12:50 PM 59.0 °F 44.6 °F 59% 30.18 in - WSW 4.6 mph - N/A   Clear
1:20 PM 60.8 °F 46.4 °F 59% 30.18 in - WSW 8.1 mph - N/A   Clear
1:50 PM 62.6 °F 46.4 °F 55% 30.18 in - SW 5.8 mph - N/A   Clear
2:20 PM 62.6 °F 48.2 °F 59% 30.15 in 6.2 mi SW 8.1 mph - N/A   Partly Cloudy
2:50 PM 62.6 °F 48.2 °F 59% 30.15 in 6.2 mi WSW 6.9 mph - N/A   Partly Cloudy
3:20 PM 62.6 °F 48.2 °F 59% 30.15 in 6.2 mi SW 8.1 mph - N/A   Partly Cloudy
3:50 PM 62.6 °F 50.0 °F 63% 30.15 in - SW 8.1 mph - N/A   Clear
4:50 PM 60.8 °F 50.0 °F 68% 30.15 in 6.2 mi WSW 8.1 mph - N/A   Partly Cloudy
5:20 PM 59.0 °F 50.0 °F 72% 30.15 in 6.2 mi West 3.5 mph - N/A   Partly Cloudy
5:50 PM 59.0 °F 50.0 °F 72% 30.18 in 6.2 mi WSW 3.5 mph - N/A   Partly Cloudy
6:50 PM 55.4 °F 50.0 °F 82% 30.18 in - Calm Calm - N/A   Clear
7:20 PM 53.6 °F 48.2 °F 82% 30.15 in - Calm Calm - N/A   Clear
7:50 PM 50.0 °F 46.4 °F 87% 30.18 in - Calm Calm - N/A   Clear
8:50 PM 48.2 °F 44.6 °F 87% 30.18 in - Calm Calm - N/A   Clear
9:50 PM 48.2 °F 46.4 °F 93% 30.18 in - WSW 2.3 mph - N/A   Clear